Вернуться в каталог

COSMOS 1037

АктивенВоенныеLEO
NORAD 11046·PAYLOAD·🇷🇺 Russia

Запущен Oct 4, 1978 с Plesetsk Cosmodrome

Loading…

Ближайшие Пролёты (ближайшие 24 часа)

TLE

СвежийSource: Space-Track

Эпоха: Sep 14, 2026, 11:07 UTC

1 11046U 78091D   26257.46324372 -.00000010  00000-0  41389-4 0  9991
2 11046  74.0336 288.8244 0012417 161.9061 264.7743 12.48412064185034

Отслеживайте COSMOS 1037 в реальном времени с AllMySat

Download on the App Store